Flag for Switzerland Weather past 2 weeks in Emmen, Lucerne, Switzerland

Now
46 °F

Cool.


Feels Like: 40 °F
Forecast: 32 / 53 °F
Wind: 13 mph from Southwest

Location: Giswil

Current Time: Apr 2, 2015 at 7:20:30 AM

Latest Report: Apr 2, 2015 at 6:00 AM


Visibility: N/A

Pressure: 30.18 "Hg

Humidity: 42%

Dew point: 24 °F

Location of EmmenLocation

Historic Weather in Emmen — Graph

°F

Emmen temperature yesterday

Maximum temperature yesterday: 49 °F (at 12:00 AM)
Minimum temperature yesterday: 41 °F (at 11:00 AM)
Average temperature yesterday: 44 °F

Past Weeks' High & Low Weather Summary

 TemperatureHumidityPressure
High65 °F (Mar 31, 1:00 PM)99% (Mar 19, 7:00 AM)30.37 "Hg (Mar 19, 7:00 AM)
Low28 °F (Mar 28, 7:00 AM)32% (Mar 31, 11:00 AM)29.62 "Hg (Mar 25, 2:00 PM)
Average45 °F76%30.03 "Hg
* Reported Mar 18 5:00 AM — Apr 2 5:00 AM, Emmen, Weather by CustomWeather, © 2015

Note: Actual official high and low records may vary slightly from our data, if they occured in-between our weather recording intervals... More about our weather records

Advertising

Emmen weather history for previous 24 hours

 ConditionsComfort  
Time TempWeatherWind HumidityBarometerVisibility
5:00 AM
Thu, Apr 2
44 °FQuite cool.9 mph47%30.22 "HgN/A
4:00 AM44 °FQuite cool.5 mph46%30.26 "HgN/A
3:00 AM39 °FChilly.2 mph82%30.30 "HgN/A
2:00 AM39 °FChilly.2 mph80%30.33 "HgN/A
1:00 AM40 °FChilly.3 mph79%30.36 "HgN/A
12:00 AM39 °FChilly.2 mph82%30.37 "HgN/A
10:00 PM
Wed, Apr 1
41 °FQuite cool.2 mph66%30.37 "HgN/A
9:00 PM42 °FQuite cool.5 mph64%30.36 "HgN/A
8:00 PM41 °FQuite cool.12 mph66%30.36 "HgN/A
7:00 PM44 °FQuite cool.7 mph49%30.32 "HgN/A
6:00 PM43 °FQuite cool.5 mph55%30.31 "HgN/A
5:00 PM43 °FQuite cool.13 mph61%30.30 "HgN/A
4:00 PM44 °FQuite cool.7 mph62%30.28 "HgN/A
3:00 PM45 °FQuite cool.10 mph53%30.27 "HgN/A
2:00 PM44 °FQuite cool.12 mph58%30.26 "HgN/A
1:00 PM44 °FQuite cool.12 mph57%30.26 "HgN/A
12:00 PM41 °FQuite cool.13 mph71%30.27 "HgN/A
11:00 AM41 °FQuite cool.9 mph67%30.29 "HgN/A
10:00 AM43 °FQuite cool.14 mph54%30.24 "HgN/A
9:00 AM43 °FQuite cool.12 mph54%30.23 "HgN/A
8:00 AM43 °FQuite cool.16 mph50%30.21 "HgN/A
7:00 AM45 °FQuite cool.17 mph44%30.17 "HgN/A
Weather by CustomWeather, © 2015

See weather overviewHow to use our weather pages